2023/09/17 00:00:00, 0.2,22.5
2023/09/17 00:10:00, 0.2,22.6
2023/09/17 00:20:00, 0.5,22.4
2023/09/17 00:30:00, 6.1,22.5
2023/09/17 00:40:00, 7.1,22.6
2023/09/17 00:50:00, 7.3,22.1
2023/09/17 01:00:00, 7.4,22.2
2023/09/17 01:10:00, 7.3,22.3
2023/09/17 01:20:00, 7.3,22.2
2023/09/17 01:30:00, 7.3,22.2
2023/09/17 01:40:00, 7.1,22.0
2023/09/17 01:50:00, 0.4,22.0
2023/09/17 02:00:00, 0.2,22.1
2023/09/17 02:10:00, 0.2,21.9
2023/09/17 02:20:00, 0.2,21.7
2023/09/17 02:30:00, 0.2,21.9
2023/09/17 02:40:00, 0.2,21.7
2023/09/17 02:50:00, 1.0,21.8
2023/09/17 03:00:00, 6.5,21.9
2023/09/17 03:10:00, 7.1,21.7
2023/09/17 03:20:00, 7.3,21.5
2023/09/17 03:30:00, 7.3,21.5
2023/09/17 03:40:00, 7.7,21.5
2023/09/17 03:50:00, 7.9,21.4
2023/09/17 04:00:00, 8.0,21.3
2023/09/17 04:10:00, 7.9,21.5
2023/09/17 04:20:00, 7.1,21.4
2023/09/17 04:30:00, 0.4,21.3
2023/09/17 04:40:00, 0.2,21.5
2023/09/17 04:50:00, 0.2,21.6
2023/09/17 05:00:00, 3.5,21.6
2023/09/17 05:10:00, 8.1,21.5
2023/09/17 05:20:00, 4.9,21.5
2023/09/17 05:30:00, 1.2,21.2
2023/09/17 05:40:00, 5.4,21.1
2023/09/17 05:50:00, 8.0,21.1
2023/09/17 06:00:00, 8.4,21.1
2023/09/17 06:10:00, 8.6,21.0
2023/09/17 06:20:00, 8.0,21.2
2023/09/17 06:30:00, 7.5,21.3
2023/09/17 06:40:00, 7.5,21.8
2023/09/17 06:50:00, 8.0,22.6
2023/09/17 07:00:00, 8.2,23.2
2023/09/17 07:10:00, 7.9,26.0
2023/09/17 07:20:00, 7.4,27.6
2023/09/17 07:30:00, 7.5,28.2
2023/09/17 07:40:00, 8.0,29.6
2023/09/17 07:50:00, 8.1,30.6
2023/09/17 08:00:00, 6.9,31.3
2023/09/17 08:10:00, 6.8,32.1
2023/09/17 08:20:00, 7.7,32.8
2023/09/17 08:30:00, 7.7,33.6
2023/09/17 08:40:00, 6.7,33.6
2023/09/17 08:50:00, 6.8,33.2
2023/09/17 09:00:00, 7.2,33.8
2023/09/17 09:10:00, 6.6,34.3
2023/09/17 09:20:00, 6.5,34.3
2023/09/17 09:30:00, 7.1,34.5
2023/09/17 09:40:00, 6.9,33.6
2023/09/17 09:50:00, 6.6,32.8
2023/09/17 10:00:00, 5.6,31.8
2023/09/17 10:10:00, 5.6,33.0
2023/09/17 10:20:00, 7.0,33.2
2023/09/17 10:30:00, 7.3,33.9
2023/09/17 10:40:00, 6.6,34.7
2023/09/17 10:50:00, 6.6,34.4
2023/09/17 11:00:00, 6.0,33.9
2023/09/17 11:10:00, 5.9,32.7
2023/09/17 11:20:00, 6.3,32.2
2023/09/17 11:30:00, 6.4,32.1
2023/09/17 11:40:00, 6.5,32.7
2023/09/17 11:50:00, 6.5,32.4
2023/09/17 12:00:00, 6.5,32.8
2023/09/17 12:10:00, 6.5,33.9
2023/09/17 12:20:00, 6.2,33.8
2023/09/17 12:30:00, 5.3,34.9
2023/09/17 12:40:00, 5.4,34.8
2023/09/17 12:50:00, 5.3,35.0
2023/09/17 13:00:00, 5.3,35.8
2023/09/17 13:10:00, 5.4,35.7
2023/09/17 13:20:00, 5.4,35.5
2023/09/17 13:30:00, 5.3,35.9
2023/09/17 13:40:00, 5.3,36.2
2023/09/17 13:50:00, 5.4,36.6
2023/09/17 14:00:00, 5.5,37.1
2023/09/17 14:10:00, 5.5,36.8
2023/09/17 14:20:00, 5.3,36.7
2023/09/17 14:30:00, 4.8,36.4
2023/09/17 14:40:00, 4.5,35.6
2023/09/17 14:50:00, 4.4,35.8
2023/09/17 15:00:00, 4.5,36.2
2023/09/17 15:10:00, 4.6,35.0
2023/09/17 15:20:00, 4.8,32.9
2023/09/17 15:30:00, 4.9,32.5
2023/09/17 15:40:00, 4.9,32.4
2023/09/17 15:50:00, 5.0,31.1
2023/09/17 16:00:00, 5.0,30.4
2023/09/17 16:10:00, 5.1,30.5
2023/09/17 16:20:00, 5.1,29.7
2023/09/17 16:30:00, 5.1,31.1
2023/09/17 16:40:00, 4.9,30.4
2023/09/17 16:50:00, 4.5,29.7
2023/09/17 17:00:00, 4.6,29.2
2023/09/17 17:10:00, 4.7,28.2
2023/09/17 17:20:00, 4.7,27.6
2023/09/17 17:30:00, 4.7,27.4
2023/09/17 17:40:00, 4.9,27.5
2023/09/17 17:50:00, 4.9,26.9
2023/09/17 18:00:00, 5.0,26.6
2023/09/17 18:10:00, 5.1,26.3
2023/09/17 18:20:00, 2.4,25.8
2023/09/17 18:30:00, 0.3,25.4
2023/09/17 18:40:00, 0.4,25.1
2023/09/17 18:50:00, 0.3,24.7
2023/09/17 19:00:00, 0.3,24.3
2023/09/17 19:10:00, 0.2,24.3
2023/09/17 19:20:00, 0.3,24.3
2023/09/17 19:30:00, 0.3,24.5
2023/09/17 19:40:00, 0.2,24.0
2023/09/17 19:50:00, 0.3,24.2
2023/09/17 20:00:00, 0.8,24.0
2023/09/17 20:10:00, 3.6,24.0
2023/09/17 20:20:00, 4.7,24.0
2023/09/17 20:30:00, 5.0,24.0
2023/09/17 20:40:00, 5.0,23.8
2023/09/17 20:50:00, 5.0,23.8
2023/09/17 21:00:00, 5.0,23.8
2023/09/17 21:10:00, 5.0,23.6
2023/09/17 21:20:00, 5.0,23.6
2023/09/17 21:30:00, 5.1,23.3
2023/09/17 21:40:00, 5.1,23.4
2023/09/17 21:50:00, 5.2,23.3
2023/09/17 22:00:00, 5.3,23.0
2023/09/17 22:10:00, 5.3,23.3
2023/09/17 22:20:00, 5.2,22.7
2023/09/17 22:30:00, 5.2,22.8
2023/09/17 22:40:00, 5.2,22.7
2023/09/17 22:50:00, 5.2,22.6
2023/09/17 23:00:00, 5.1,22.8
2023/09/17 23:10:00, 5.1,22.6
2023/09/17 23:20:00, 5.1,22.7
2023/09/17 23:30:00, 5.1,22.5
2023/09/17 23:40:00, 5.1,22.5
2023/09/17 23:50:00, 5.0,22.6
